Location: Malanoce
(44.2500°N, 7.4667°E)
Time: 08:35:07
(UTC+00:00)

BlueWalker 3 - Pass Details

Date: 23 January 2026
Orbit: 450 x 461 km, 53.2° (Epoch: 11 February)

Event Time Altitude Azimuth Distance (km) Brightness Sun altitude
Rises 19:23:26 0° 274° (W) 2,453 6.6 -31.3°
Reaches altitude 10° 19:25:51 10° 288° (WNW) 1,582 5.3 -31.8°
Enters shadow 19:26:21 13° 294° (WNW) 1,421 4.9 -31.9°
